Wind_Speed
12 11 11 12 12 13 13 12 12 13 14 15 16 19 23 27 29 15 6 6 8 14 17 21 26 28 25 11 2 2 4 4 7 9 4 4 12 14 11 10 8 8 15 24 31
13 12 12 11 12 13 13 13 13 13 14 15 16 19 22 25 26 15 18 13 13 13 14 15 17 21 5 6 3 4 5 8 9 9 9 12 8 10 6 6 16 17 22 30 33
15 13 13 12 12 12 13 14 13 13 14 15 15 18 20 21 6 6 8 13 10 10 16 19 22 16 13 4 2 1 3 7 7 11 12 13 3 3 14 8 16 22 20 19 28
16 16 14 14 13 13 13 13 14 14 15 15 16 19 20 5 4 2 5 9 9 11 14 14 9 11 3 5 6 6 7 7 6 12 8 9 4 12 11 18 16 17 19 13 21
18 17 16 15 14 13 13 13 13 13 13 13 15 17 9 4 10 15 6 8 11 12 17 16 16 4 1 5 11 7 8 7 11 13 12 11 12 17 22 19 16 15 13 11 15
19 19 18 17 14 13 13 12 12 11 12 11 12 13 4 7 15 13 2 9 14 16 22 17 8 10 8 5 5 7 7 9 18 22 10 15 7 9 17 19 18 15 12 9 18
20 20 19 17 14 13 12 12 10 10 10 9 10 9 5 15 13 15 18 11 17 21 11 22 17 8 9 11 8 9 4 5 17 14 9 15 7 9 13 18 18 17 14 10 16
21 22 20 18 14 12 12 11 10 9 8 8 8 2 8 20 19 22 23 24 17 18 15 20 18 8 5 8 2 8 4 3 10 12 12 8 11 9 10 13 13 15 14 12 19
22 23 21 18 14 12 10 10 9 9 7 6 5 3 9 12 13 17 19 13 16 20 22 21 9 7 10 5 4 3 6 10 7 12 12 5 9 14 12 13 14 15 15 10 16
23 25 22 19 13 10 8 7 6 7 5 3 9 6 8 9 13 21 20 19 12 10 10 9 5 5 5 7 5 2 6 7 5 11 15 10 14 15 13 11 15 13 12 11 14
25 25 22 18 12 8 4 3 1 1 6 10 9 7 10 16 19 16 19 19 14 9 7 9 3 5 7 10 7 14 4 11 11 7 6 14 17 15 12 12 13 8 8 2 17
26 25 22 16 10 6 4 4 11 14 7 20 20 18 27 20 4 10 22 8 8 8 9 7 8 7 16 17 8 6 7 6 10 9 5 11 9 17 13 15 18 16 11 10 8
27 25 21 13 9 7 11 18 15 21 4 11 15 9 13 8 7 8 9 10 7 9 11 8 11 9 12 10 7 6 7 2 8 8 7 3 5 13 11 10 20 13 11 10 5
27 24 19 9 6 4 7 12 13 14 4 7 11 7 14 8 10 14 17 10 7 11 12 9 12 8 12 15 8 8 4 7 5 3 4 6 3 7 13 12 19 14 14 12 9
28 23 17 6 9 5 11 13 13 11 4 12 11 10 9 10 7 9 22 9 11 10 6 11 10 11 12 10 7 6 2 6 5 3 4 9 4 8 11 8 18 18 13 7 6
29 22 11 3 9 14 13 11 2 1 7 6 9 9 8 9 11 11 8 7 8 9 11 10 9 5 8 7 9 4 4 4 4 1 4 9 3 4 11 8 14 17 17 15 8
28 18 9 9 5 8 14 8 2 5 5 12 11 13 10 10 14 10 11 9 7 3 6 9 10 7 5 3 9 5 3 3 3 1 7 5 8 2 8 13 11 12 11 10 16
23 13 6 22 12 10 11 1 6 11 11 12 13 13 12 10 8 8 8 8 14 12 5 7 8 9 6 11 9 8 8 5 5 3 5 10 2 3 5 6 3 13 12 15 26
13 7 6 18 18 10 2 5 6 6 8 11 14 11 10 13 10 9 10 9 11 13 9 3 7 7 8 6 2 6 4 11 6 5 3 4 2 7 6 6 9 9 12 10 16
7 8 11 8 19 7 3 8 7 12 20 15 10 11 10 12 9 11 13 15 17 16 9 9 1 7 11 6 8 5 5 6 4 3 1 1 3 5 6 7 7 5 8 5 4
1 3 8 25 18 3 6 6 13 20 21 20 11 10 12 8 10 12 12 18 21 12 11 4 2 5 4 7 5 6 6 5 2 3 3 2 2 4 4 7 8 7 15 9 3
6 3 23 25 5 4 8 7 8 25 25 16 6 7 10 11 10 9 10 10 12 6 6 4 5 5 5 5 7 8 5 3 3 9 4 6 4 6 9 1 4 11 14 15 22
3 5 16 19 5 8 9 18 22 25 26 12 7 8 5 7 7 4 4 13 9 7 3 5 2 4 9 7 5 6 5 12 8 1 2 4 4 4 5 1 12 15 25 23 14
3 3 2 5 8 12 11 13 19 19 18 10 10 10 10 8 6 6 4 6 10 6 2 5 5 7 6 8 3 6 8 10 6 4 3 3 5 6 7 7 12 17 10 23 6
3 4 5 4 10 13 14 14 19 16 15 9 10 11 11 8 11 11 1 4 9 3 2 7 5 8 6 7 4 3 3 12 15 13 3 8 10 15 12 9 17 20 16 17 8
1 1 5 9 13 13 14 15 12 15 5 5 6 21 24 10 4 1 3 5 7 8 3 2 7 4 4 2 8 7 6 9 15 17 4 9 7 13 13 6 4 11 9 9 12
9 2 2 9 11 6 8 5 2 5 9 15 18 17 17 7 4 12 10 6 4 3 5 3 7 5 5 3 7 7 13 2 9 13 7 7 5 13 16 13 15 13 8 12 13
Wind_Direction
343 336 329 327 324 322 319 317 316 319 321 323 328 328 327 329 323 325 271 256 249 281 299 309 300 277 271 262 128 46 69 130 167 116 137 125 106 99 88 130 151 129 130 122 128
344 337 331 326 323 320 318 314 311 315 319 321 325 326 327 333 325 282 255 259 267 280 304 300 306 315 258 296 147 40 68 65 115 112 102 60 98 136 104 67 107 123 130 132 135
343 336 329 324 320 317 313 313 310 313 317 320 322 322 328 330 291 233 266 234 255 285 287 297 294 301 309 69 279 78 129 105 68 110 98 117 104 72 126 166 144 128 139 144 142
345 336 328 322 316 312 309 309 308 312 318 321 324 324 329 315 293 185 214 240 258 279 286 277 272 281 83 87 275 121 136 128 141 117 111 101 128 107 132 121 123 133 147 158 149
346 338 330 320 311 308 306 306 305 308 314 318 322 331 348 284 249 276 269 256 270 273 262 272 289 81 345 179 241 102 136 142 127 110 100 113 94 111 115 122 128 132 153 166 143
347 341 332 322 315 308 304 302 300 302 308 314 318 332 327 268 270 222 289 258 266 270 261 275 299 334 202 117 277 156 170 155 105 115 124 65 62 98 127 131 142 149 160 160 156
347 341 333 323 315 307 301 296 293 292 298 307 315 345 271 242 265 300 303 259 268 266 282 315 342 351 313 285 172 137 220 165 127 115 116 103 357 115 139 147 152 155 171 182 161
347 342 334 325 315 304 296 289 281 280 285 295 304 341 253 263 267 285 283 284 266 281 293 289 304 318 280 283 226 173 176 101 142 123 163 121 146 156 171 155 152 157 162 170 145
342 343 334 327 317 302 289 282 275 274 281 285 311 205 268 291 231 249 259 266 262 260 260 267 287 265 304 292 281 241 121 228 169 146 145 107 154 169 182 166 155 153 165 169 163
339 341 334 327 317 300 286 281 280 287 296 272 267 310 253 245 216 221 235 257 262 265 252 252 267 274 298 267 216 29 171 175 195 166 170 151 157 171 183 162 159 158 156 158 152
338 338 332 326 317 300 279 335 292 299 245 202 196 225 292 219 247 198 215 233 252 270 229 255 251 285 326 300 140 238 218 132 186 197 182 141 167 172 183 171 138 75 70 297 165
336 335 330 325 313 280 254 251 262 335 277 224 248 240 266 267 221 194 201 203 226 244 251 276 227 127 283 295 267 230 277 202 164 157 173 173 171 172 190 178 143 124 163 263 300
335 333 327 321 308 268 224 236 267 312 297 284 207 227 248 239 246 233 184 207 201 240 254 226 240 230 249 275 267 264 252 206 160 182 191 174 195 170 195 126 138 158 165 199 255
334 330 324 321 305 297 239 271 250 263 299 255 175 231 249 210 243 195 224 191 235 223 239 243 246 225 211 243 216 251 14 321 219 85 212 178 226 206 181 155 157 161 167 183 169
333 327 317 246 296 262 277 257 237 234 290 147 170 201 202 189 176 185 204 217 234 239 203 249 239 224 254 247 237 240 268 256 267 219 225 278 140 222 174 178 165 158 179 100 145
332 324 309 243 250 259 320 334 209 254 240 176 161 175 193 197 235 171 168 223 242 258 271 251 276 206 220 219 266 237 120 310 292 215 331 260 215 223 170 177 147 168 155 136 249
330 317 253 206 204 326 287 288 219 232 242 145 164 165 181 208 229 155 179 200 219 229 278 273 271 275 209 269 262 255 106 307 338 341 227 174 61 126 22 3 20 156 171 135 147
328 303 241 231 239 305 319 189 247 245 241 159 162 179 187 213 187 155 176 193 236 241 247 198 267 213 195 204 209 188 178 177 235 172 250 46 16 264 314 296 154 131 174 221 186
329 304 249 250 219 258 316 220 223 230 334 173 163 177 210 221 145 153 188 211 225 226 219 240 254 189 210 229 155 275 210 226 254 278 91 177 204 298 310 344 2 349 342 68 142
328 278 236 198 183 194 240 248 269 279 298 312 159 174 207 215 173 170 192 211 225 226 205 251 17 303 219 187 249 199 248 3 345 327 258 2 173 220 246 195 222 278 276 305 234
231 254 223 167 152 199 226 248 271 273 274 285 188 183 218 199 189 193 197 231 211 230 211 245 139 280 75 48 33 347 300 272 224 165 94 209 281 321 214 227 239 337 312 332 45
286 260 146 154 175 215 238 250 270 279 287 289 299 277 209 210 189 219 208 210 178 177 156 218 92 87 286 313 84 79 3 345 84 283 179 159 283 286 237 205 354 12 322 327 312
274 260 163 185 217 234 239 250 261 271 278 277 263 301 211 222 184 182 88 34 89 72 47 355 46 57 348 341 16 65 332 319 342 6 358 86 245 247 315 289 69 25 349 326 311
281 269 163 210 249 269 290 270 254 266 271 292 299 301 309 321 117 147 133 104 84 88 171 71 48 126 168 225 129 289 317 317 315 37 336 157 183 242 214 248 107 93 108 272 91
224 274 298 228 231 241 262 282 287 288 274 274 298 263 20 26 64 356 33 116 96 107 62 117 127 133 196 230 187 259 297 320 318 308 43 163 180 195 191 190 157 165 167 285 83
296 342 319 293 275 216 236 261 289 295 317 331 49 73 45 34 128 137 352 70 36 317 175 256 177 121 224 23 314 325 346 301 303 305 46 80 68 178 165 101 110 164 174 75 287
351 300 283 281 304 282 241 232 240 330 38 28 91 92 77 295 208 112 116 84 107 160 333 290 149 153 183 39 327 312 239 109 293 294 84 91 113 105 156 171 187 203 167 194 236
Height
788 785 784 782 781 780 778 776 775 774 773 771 769 766 762 757 751 748 745 740 737 735 732 729 724 720 718 718 712 712 762 779 773 770 764 744 754 753 751 760 759 758 768 773 784
787 784 782 781 779 778 777 775 774 773 771 769 767 765 762 758 752 744 738 737 735 734 732 729 725 718 724 718 720 734 767 760 742 744 754 750 749 754 763 769 765 765 770 775 785
785 783 781 779 778 776 775 774 773 772 770 769 767 764 762 759 755 737 733 734 733 733 730 728 724 723 730 723 724 729 759 741 740 736 736 747 751 749 763 778 766 771 773 776 784
784 781 779 777 776 774 773 772 771 769 768 766 765 762 760 758 771 733 733 733 732 732 730 728 725 731 740 743 727 743 731 731 734 734 739 748 745 751 756 766 760 763 769 775 784
783 780 778 775 774 772 771 770 769 768 767 765 763 761 757 758 747 734 733 731 731 731 728 725 725 725 739 735 729 736 733 727 724 730 743 743 753 757 761 758 764 767 771 774 778
782 779 776 774 772 770 769 768 767 766 766 765 763 762 761 767 733 733 732 731 729 729 724 721 719 715 728 732 735 725 726 727 734 739 740 760 759 756 761 758 764 768 772 774 778
782 778 775 772 770 769 767 766 765 765 765 764 763 762 761 748 731 732 733 731 729 726 724 719 715 722 722 730 713 721 740 731 737 742 756 749 777 770 759 757 765 770 772 773 778
781 777 774 770 768 767 765 764 763 763 763 763 763 763 759 733 732 731 730 730 728 725 723 720 717 719 722 711 718 738 739 767 744 743 750 749 791 768 758 759 766 768 769 772 776
780 776 772 769 766 765 764 763 762 762 762 762 763 763 755 728 729 729 729 729 727 724 722 719 718 728 726 742 755 742 777 769 757 738 748 755 783 761 754 758 764 765 767 769 773
778 774 770 767 764 763 762 762 761 761 761 762 763 767 740 729 723 725 727 728 726 723 724 723 730 746 747 754 793 768 766 757 762 747 746 758 767 757 754 758 762 764 767 769 772
776 772 768 765 763 762 762 762 764 765 761 752 746 740 724 719 719 721 724 726 724 729 749 733 757 770 750 740 735 743 747 752 747 731 742 755 761 757 752 757 764 774 774 772 768
774 770 766 763 761 761 762 761 748 747 751 737 733 733 724 720 722 718 721 734 736 752 737 751 768 741 731 728 736 737 752 750 740 730 740 755 759 750 748 755 763 768 768 772 780
772 768 764 761 760 760 758 751 747 744 751 730 722 726 721 716 724 723 717 725 738 750 745 759 746 725 735 738 742 744 750 745 752 737 734 745 767 761 747 747 757 763 757 766 775
769 765 762 760 763 759 754 743 745 745 773 739 725 721 717 714 729 711 712 721 732 749 741 744 726 733 737 743 739 767 729 734 737 756 789 745 811 772 753 757 761 763 765 761 772
766 762 760 760 758 756 745 743 743 745 805 712 720 700 705 721 711 716 707 716 739 738 736 749 732 738 743 737 725 745 718 734 737 754 763 762 789 773 754 763 768 765 754 764 759
763 759 757 758 757 747 743 741 744 779 792 723 709 718 721 716 717 708 714 710 712 731 729 731 709 717 726 717 718 711 728 734 742 763 809 773 772 777 767 758 761 759 756 766 778
758 755 755 754 749 746 746 744 780 790 707 726 725 717 724 728 724 720 731 741 754 764 764 738 730 712 707 730 722 726 750 807 811 813 814 757 782 784 766 761 762 774 773 765 773
754 751 749 747 747 747 744 761 791 733 722 699 711 719 733 718 721 724 736 752 732 738 756 770 775 727 708 729 741 741 756 804 812 810 794 767 804 792 767 754 752 763 775 770 774
750 748 746 740 745 749 754 779 756 726 698 705 712 733 732 717 721 728 737 744 728 723 760 758 757 707 706 706 715 739 762 738 766 759 783 806 791 776 756 750 744 746 742 773 766
750 748 739 737 742 748 762 765 737 708 700 703 727 721 739 724 726 731 737 717 720 706 706 730 753 721 710 705 709 722 722 772 776 801 803 797 806 793 773 751 743 739 743 738 761
751 746 724 733 742 751 765 747 727 703 699 708 710 717 715 717 714 724 725 705 696 699 699 708 732 737 716 740 753 751 754 744 756 769 796 811 795 768 771 761 753 753 747 732 754
749 749 727 732 750 746 750 736 719 707 692 691 687 696 702 701 712 714 715 702 679 686 712 703 740 771 756 728 724 740 755 752 787 781 770 783 818 766 764 760 759 767 758 758 764
751 736 725 728 754 747 733 727 716 710 700 692 692 682 678 694 715 701 700 679 678 697 718 711 750 794 784 747 730 753 748 749 740 750 766 793 801 766 777 770 770 763 758 760 752
756 744 729 727 725 733 734 726 719 691 689 683 687 680 689 697 691 705 703 687 685 697 703 705 741 763 798 776 762 763 750 749 760 778 765 781 789 786 786 780 782 776 788 767 756
749 744 731 740 733 729 725 721 719 709 684 680 693 688 713 727 709 728 700 694 692 702 699 721 763 756 752 744 746 749 751 755 764 756 766 776 789 777 779 779 778 774 775 774 755
752 752 743 731 715 722 723 722 715 706 696 700 705 722 715 735 727 741 723 729 741 716 708 709 762 749 764 750 753 757 749 748 747 746 744 751 761 754 767 776 781 779 775 770 786
743 743 740 730 720 720 715 710 712 711 711 711 711 716 734 733 726 713 718 724 727 742 743 726 750 761 780 762 765 786 755 749 747 744 738 769 752 745 772 775 778 779 780 784 786